| time (UTC) | temp F | wind direction | speed MPH | gust MPH | rain 1hr in | rain 24hr in | rain mn in | humidity % | barometer mb |
| 20260903195551 | 89 | 254 | 2.0 | 6.0 | 0.00 | 0.00 | 0.00 | 44 | 1014.6 |
| 20260903195051 | 90 | 52 | 1.0 | 6.0 | 0.00 | 0.00 | 0.00 | 43 | 1014.8 |
| 20260903194601 | 90 | 141 | 1.0 | 5.0 | 0.00 | 0.00 | 0.00 | 44 | 1014.9 |
| 20260903194051 | 90 | 117 | 0.0 | 7.0 | 0.00 | 0.00 | 0.00 | 45 | 1015.0 |
| 20260903193551 | 89 | 115 | 2.0 | 7.0 | 0.00 | 0.00 | 0.00 | 46 | 1015.0 |
| 20260903193057 | 89 | 0 | 4.0 | 10.0 | 0.00 | 0.00 | 0.00 | 46 | 1015.1 |
| 20260903192556 | 89 | 137 | 3.0 | 10.0 | 0.00 | 0.00 | 0.00 | 45 | 1015.2 |
| 20260903192052 | 89 | 98 | 4.0 | 9.0 | 0.00 | 0.00 | 0.00 | 45 | 1015.3 |
| 20260903191602 | 89 | 66 | 1.0 | 9.0 | 0.00 | 0.00 | 0.00 | 46 | 1015.3 |
| 20260903191056 | 89 | 116 | 3.0 | 9.0 | 0.00 | 0.00 | 0.00 | 46 | 1015.5 |
| 20260903190552 | 89 | 170 | 2.0 | 7.0 | 0.00 | 0.00 | 0.00 | 47 | 1015.5 |
| 20260903190106 | 88 | 340 | 2.0 | 7.0 | 0.00 | 0.00 | 0.00 | 47 | 1015.7 |
| 20260903185555 | 88 | 277 | 2.0 | 7.0 | 0.00 | 0.00 | 0.00 | 47 | 1015.7 |
| 20260903185053 | 88 | 94 | 1.0 | 6.0 | 0.00 | 0.00 | 0.00 | 47 | 1015.8 |
| 20260903184608 | 88 | 0 | 1.0 | 6.0 | 0.00 | 0.00 | 0.00 | 47 | 1016.0 |
| 20260903184053 | 88 | 0 | 0.0 | 6.0 | 0.00 | 0.00 | 0.00 | 47 | 1016.0 |
| 20260903183556 | 88 | 92 | 1.0 | 6.0 | 0.00 | 0.00 | 0.00 | 48 | 1016.1 |
| 20260903183106 | 88 | 91 | 1.0 | 7.0 | 0.00 | 0.00 | 0.00 | 48 | 1016.2 |
| 20260903182552 | 87 | 88 | 3.0 | 7.0 | 0.00 | 0.00 | 0.00 | 49 | 1016.3 |
| 20260903182054 | 87 | 126 | 2.0 | 7.0 | 0.00 | 0.00 | 0.00 | 49 | 1016.3 |
| 20260903181601 | 87 | 211 | 1.0 | 7.0 | 0.00 | 0.00 | 0.00 | 49 | 1016.5 |
| 20260903181053 | 87 | 164 | 2.0 | 7.0 | 0.00 | 0.00 | 0.00 | 48 | 1016.6 |
| 20260903180553 | 86 | 165 | 2.0 | 7.0 | 0.00 | 0.00 | 0.00 | 50 | 1016.7 |
| 20260903180113 | 86 | 90 | 1.0 | 6.0 | 0.00 | 0.00 | 0.00 | 52 | 1016.7 |
| 20260903175552 | 85 | 100 | 1.0 | 6.0 | 0.00 | 0.00 | 0.00 | 53 | 1016.8 |
| 20260903175052 | 85 | 100 | 1.0 | 6.0 | 0.00 | 0.00 | 0.00 | 53 | 1016.9 |
| 20260903174603 | 85 | 0 | 2.0 | 4.0 | 0.00 | 0.00 | 0.00 | 54 | 1016.9 |
| 20260903174051 | 84 | 73 | 1.0 | 6.0 | 0.00 | 0.00 | 0.00 | 56 | 1017.0 |
| 20260903173551 | 84 | 67 | 2.0 | 6.0 | 0.00 | 0.00 | 0.00 | 55 | 1016.9 |
| 20260903173108 | 84 | 117 | 1.0 | 5.0 | 0.00 | 0.00 | 0.00 | 56 | 1016.9 |
| 20260903172551 | 83 | 132 | 1.0 | 4.0 | 0.00 | 0.00 | 0.00 | 57 | 1016.9 |
| 20260903172051 | 82 | 134 | 1.0 | 7.0 | 0.00 | 0.00 | 0.00 | 58 | 1017.0 |
| 20260903171558 | 82 | 89 | 2.0 | 7.0 | 0.00 | 0.00 | 0.00 | 58 | 1017.1 |
| 20260903171053 | 82 | 129 | 1.0 | 5.0 | 0.00 | 0.00 | 0.00 | 58 | 1017.0 |
| 20260903170552 | 82 | 0 | 2.0 | 5.0 | 0.00 | 0.00 | 0.00 | 58 | 1016.9 |
| 20260903170109 | 82 | 129 | 0.0 | 4.0 | 0.00 | 0.00 | 0.00 | 59 | 1016.9 |
| 20260903165551 | 82 | 130 | 0.0 | 4.0 | 0.00 | 0.00 | 0.00 | 59 | 1016.9 |
| 20260903165052 | 82 | 0 | 2.0 | 6.0 | 0.00 | 0.00 | 0.00 | 59 | 1017.0 |
| 20260903164604 | 82 | 119 | 3.0 | 6.0 | 0.00 | 0.00 | 0.00 | 58 | 1016.9 |
| 20260903164052 | 82 | 123 | 1.0 | 4.0 | 0.00 | 0.00 | 0.00 | 57 | 1016.8 |
| 20260903163554 | 82 | 123 | 0.0 | 4.0 | 0.00 | 0.00 | 0.00 | 57 | 1016.9 |
| 20260903163135 | 82 | 121 | 2.0 | 4.0 | 0.00 | 0.00 | 0.00 | 58 | 1017.0 |
| 20260903162557 | 81 | 0 | 0.0 | 5.0 | 0.00 | 0.00 | 0.00 | 58 | 1017.0 |
| 20260903162053 | 81 | 0 | 1.0 | 5.0 | 0.00 | 0.00 | 0.00 | 57 | 1017.0 |
| 20260903161558 | 81 | 149 | 1.0 | 5.0 | 0.00 | 0.00 | 0.00 | 57 | 1017.0 |
| 20260903161053 | 82 | 161 | 1.0 | 4.0 | 0.00 | 0.00 | 0.00 | 57 | 1017.0 |
| 20260903160553 | 82 | 165 | 1.0 | 4.0 | 0.00 | 0.00 | 0.00 | 56 | 1017.0 |
| 20260903160107 | 82 | 94 | 1.0 | 4.0 | 0.00 | 0.00 | 0.00 | 57 | 1017.1 |
| 20260903155552 | 81 | 0 | 0.0 | 4.0 | 0.00 | 0.00 | 0.00 | 57 | 1017.1 |
| 20260903155056 | 81 | 78 | 1.0 | 4.0 | 0.00 | 0.00 | 0.00 | 57 | 1017.0 |
| 20260903154601 | 81 | 76 | 0.0 | 3.0 | 0.00 | 0.00 | 0.00 | 57 | 1016.8 |
| 20260903154051 | 80 | 0 | 0.0 | 0.0 | 0.00 | 0.00 | 0.00 | 57 | 1016.9 |
| 20260903153553 | 80 | 0 | 0.0 | 0.0 | 0.00 | 0.00 | 0.00 | 58 | 1016.9 |
| 20260903153103 | 80 | 0 | 0.0 | 4.0 | 0.00 | 0.00 | 0.00 | 59 | 1016.9 |
| 20260903152555 | 80 | 0 | 0.0 | 4.0 | 0.00 | 0.00 | 0.00 | 59 | 1016.9 |
| 20260903152056 | 80 | 27 | 1.0 | 4.0 | 0.00 | 0.00 | 0.00 | 60 | 1016.9 |
| 20260903151602 | 79 | 18 | 0.0 | 3.0 | 0.00 | 0.00 | 0.00 | 60 | 1016.8 |
| 20260903151054 | 78 | 0 | 0.0 | 0.0 | 0.00 | 0.00 | 0.00 | 61 | 1016.9 |
| 20260903150551 | 77 | 0 | 0.0 | 3.0 | 0.00 | 0.00 | 0.00 | 65 | 1016.9 |
| 20260903150105 | 77 | 0 | 1.0 | 4.0 | 0.00 | 0.00 | 0.00 | 67 | 1017.0 |
| 20260903145556 | 77 | 0 | 1.0 | 4.0 | 0.00 | 0.00 | 0.00 | 68 | 1016.9 |
| 20260903145057 | 77 | 18 | 1.0 | 4.0 | 0.00 | 0.00 | 0.00 | 69 | 1017.0 |
| 20260903144610 | 77 | 18 | 2.0 | 4.0 | 0.00 | 0.00 | 0.00 | 68 | 1017.0 |
| 20260903144055 | 76 | 16 | 0.0 | 4.0 | 0.00 | 0.00 | 0.00 | 68 | 1017.0 |
| 20260903143550 | 77 | 0 | 2.0 | 4.0 | 0.00 | 0.00 | 0.00 | 68 | 1016.9 |
| 20260903143105 | 77 | 16 | 1.0 | 4.0 | 0.00 | 0.00 | 0.00 | 68 | 1017.0 |
| 20260903142555 | 77 | 16 | 1.0 | 5.0 | 0.00 | 0.00 | 0.00 | 67 | 1016.9 |
| 20260903142052 | 77 | 0 | 2.0 | 5.0 | 0.00 | 0.00 | 0.00 | 67 | 1016.9 |
| 20260903141603 | 77 | 21 | 3.0 | 5.0 | 0.00 | 0.00 | 0.00 | 64 | 1016.9 |
| 20260903141053 | 77 | 0 | 0.0 | 4.0 | 0.00 | 0.00 | 0.00 | 61 | 1017.0 |
| 20260903140551 | 77 | 0 | 1.0 | 4.0 | 0.00 | 0.00 | 0.00 | 60 | 1016.9 |
| 20260903140105 | 77 | 265 | 1.0 | 6.0 | 0.00 | 0.00 | 0.00 | 60 | 1016.8 |
| 20260903135553 | 77 | 0 | 2.0 | 8.0 | 0.00 | 0.00 | 0.00 | 61 | 1016.9 |
| 20260903135052 | 77 | 255 | 3.0 | 10.0 | 0.00 | 0.00 | 0.00 | 60 | 1016.7 |
| 20260903134628 | 78 | 301 | 4.0 | 10.0 | 0.00 | 0.00 | 0.00 | 59 | 1016.6 |
| 20260903134056 | 78 | 282 | 3.0 | 9.0 | 0.00 | 0.00 | 0.00 | 61 | 1016.6 |
| 20260903133557 | 78 | 263 | 1.0 | 10.0 | 0.00 | 0.00 | 0.00 | 64 | 1016.4 |
| 20260903133109 | 78 | 263 | 4.0 | 10.0 | 0.00 | 0.00 | 0.00 | 62 | 1016.4 |
| 20260903132555 | 78 | 246 | 5.0 | 10.0 | 0.00 | 0.00 | 0.00 | 63 | 1016.5 |
| 20260903132055 | 78 | 335 | 4.0 | 9.0 | 0.00 | 0.00 | 0.00 | 61 | 1016.4 |
| 20260903131608 | 78 | 333 | 2.0 | 9.0 | 0.00 | 0.00 | 0.00 | 60 | 1016.4 |
| 20260903131051 | 78 | 301 | 2.0 | 10.0 | 0.00 | 0.00 | 0.00 | 60 | 1016.3 |
| 20260903130555 | 79 | 281 | 3.0 | 17.0 | 0.00 | 0.00 | 0.00 | 59 | 1016.2 |
| 20260903130108 | 79 | 0 | 3.0 | 17.0 | 0.00 | 0.00 | 0.00 | 58 | 1016.0 |
| 20260903125553 | 78 | 283 | 6.0 | 15.0 | 0.00 | 0.00 | 0.00 | 58 | 1015.9 |
| 20260903125053 | 78 | 233 | 6.0 | 15.0 | 0.00 | 0.00 | 0.00 | 61 | 1015.9 |
| 20260903124606 | 79 | 223 | 5.0 | 14.0 | 0.00 | 0.00 | 0.00 | 62 | 1015.9 |
| 20260903124052 | 79 | 222 | 6.0 | 15.0 | 0.00 | 0.00 | 0.00 | 60 | 1015.9 |
| 20260903123552 | 79 | 221 | 4.0 | 19.0 | 0.00 | 0.00 | 0.00 | 59 | 1015.8 |
| 20260903123110 | 79 | 197 | 5.0 | 19.0 | 0.00 | 0.00 | 0.00 | 59 | 1015.6 |
| 20260903122551 | 79 | 237 | 8.0 | 18.0 | 0.00 | 0.00 | 0.00 | 59 | 1015.7 |
| 20260903122054 | 79 | 232 | 4.0 | 10.0 | 0.00 | 0.00 | 0.00 | 60 | 1015.7 |
| 20260903121603 | 79 | 230 | 2.0 | 6.0 | 0.00 | 0.00 | 0.00 | 60 | 1015.7 |
| 20260903121050 | 79 | 238 | 1.0 | 7.0 | 0.00 | 0.00 | 0.00 | 60 | 1015.7 |
| 20260903120557 | 79 | 235 | 2.0 | 7.0 | 0.00 | 0.00 | 0.00 | 65 | 1015.8 |
| 20260903120130 | 78 | 228 | 2.0 | 7.0 | 0.00 | 0.00 | 0.00 | 68 | 1015.9 |
| 20260903115553 | 78 | 115 | 0.0 | 0.0 | 0.00 | 0.00 | 0.00 | 70 | 1015.8 |
| 20260903115055 | 78 | 0 | 0.0 | 0.0 | 0.00 | 0.00 | 0.00 | 69 | 1015.5 |
| 20260903114606 | 78 | 0 | 0.0 | 2.0 | 0.00 | 0.00 | 0.00 | 69 | 1015.5 |
| 20260903114051 | 78 | 0 | 0.0 | 4.0 | 0.00 | 0.00 | 0.00 | 69 | 1015.4 |
| 20260903113553 | 78 | 0 | 0.0 | 4.0 | 0.00 | 0.00 | 0.00 | 69 | 1015.5 |
| 20260903113107 | 78 | 115 | 1.0 | 4.0 | 0.00 | 0.00 | 0.00 | 69 | 1015.5 |
| 20260903112551 | 78 | 114 | 0.0 | 6.0 | 0.00 | 0.00 | 0.00 | 70 | 1015.6 |
| 20260903112050 | 78 | 114 | 2.0 | 6.0 | 0.00 | 0.00 | 0.00 | 70 | 1015.5 |
| 20260903111601 | 78 | 114 | 2.0 | 6.0 | 0.00 | 0.00 | 0.00 | 70 | 1015.5 |
| 20260903111056 | 78 | 122 | 2.0 | 4.0 | 0.00 | 0.00 | 0.00 | 70 | 1015.5 |
| 20260903110551 | 79 | 122 | 0.0 | 4.0 | 0.00 | 0.00 | 0.00 | 70 | 1015.4 |
| 20260903110103 | 79 | 122 | 1.0 | 4.0 | 0.00 | 0.00 | 0.00 | 70 | 1015.4 |
| 20260903105553 | 79 | 122 | 1.0 | 5.0 | 0.00 | 0.00 | 0.00 | 68 | 1015.4 |
| 20260903105052 | 79 | 0 | 0.0 | 5.0 | 0.00 | 0.00 | 0.00 | 66 | 1015.5 |
| 20260903104609 | 79 | 126 | 1.0 | 5.0 | 0.00 | 0.00 | 0.00 | 67 | 1015.5 |
| 20260903104050 | 79 | 126 | 1.0 | 3.0 | 0.00 | 0.00 | 0.00 | 67 | 1015.5 |
| 20260903103550 | 79 | 0 | 0.0 | 1.0 | 0.00 | 0.00 | 0.00 | 68 | 1015.4 |
| 20260903103104 | 79 | 0 | 0.0 | 2.0 | 0.00 | 0.00 | 0.00 | 68 | 1015.5 |
| 20260903102553 | 79 | 0 | 0.0 | 3.0 | 0.00 | 0.00 | 0.00 | 68 | 1015.5 |
| 20260903102050 | 79 | 0 | 1.0 | 3.0 | 0.00 | 0.00 | 0.00 | 68 | 1015.5 |
| 20260903101601 | 80 | 0 | 0.0 | 0.0 | 0.00 | 0.00 | 0.00 | 65 | 1015.5 |
| 20260903101050 | 80 | 0 | 0.0 | 3.0 | 0.00 | 0.00 | 0.00 | 64 | 1015.5 |
| 20260903100554 | 80 | 0 | 0.0 | 3.0 | 0.00 | 0.00 | 0.00 | 64 | 1015.5 |
| 20260903095552 | 79 | 0 | 0.0 | 0.0 | 0.00 | 0.00 | 0.00 | 64 | 1015.6 |
| 20260903095053 | 79 | 0 | 0.0 | 0.0 | 0.00 | 0.00 | 0.00 | 65 | 1015.6 |
| 20260903094603 | 79 | 0 | 0.0 | 0.0 | 0.00 | 0.00 | 0.00 | 66 | 1015.6 |
| 20260903094051 | 79 | 0 | 0.0 | 0.0 | 0.00 | 0.00 | 0.00 | 67 | 1015.7 |
| 20260903093554 | 79 | 0 | 0.0 | 0.0 | 0.00 | 0.00 | 0.00 | 68 | 1015.7 |
| 20260903093106 | 80 | 0 | 0.0 | 0.0 | 0.00 | 0.00 | 0.00 | 66 | 1015.7 |
| 20260903092553 | 80 | 0 | 0.0 | 0.0 | 0.00 | 0.00 | 0.00 | 67 | 1015.7 |
| 20260903092054 | 80 | 0 | 0.0 | 0.0 | 0.00 | 0.00 | 0.00 | 66 | 1015.5 |
| 20260903091601 | 80 | 0 | 0.0 | 0.0 | 0.00 | 0.00 | 0.00 | 67 | 1015.5 |
| 20260903091053 | 80 | 0 | 0.0 | 0.0 | 0.00 | 0.00 | 0.00 | 63 | 1015.6 |
| 20260903090551 | 80 | 0 | 0.0 | 0.0 | 0.00 | 0.00 | 0.00 | 65 | 1015.6 |
| 20260903090058 | 80 | 0 | 0.0 | 0.0 | 0.00 | 0.00 | 0.00 | 64 | 1015.6 |
| 20260903085552 | 80 | 0 | 0.0 | 0.0 | 0.00 | 0.00 | 0.00 | 63 | 1015.8 |
| 20260903085052 | 80 | 0 | 0.0 | 0.0 | 0.00 | 0.00 | 0.00 | 63 | 1015.8 |
| 20260903084603 | 80 | 0 | 0.0 | 0.0 | 0.00 | 0.00 | 0.00 | 62 | 1015.8 |
| 20260903084053 | 80 | 0 | 0.0 | 0.0 | 0.00 | 0.00 | 0.00 | 63 | 1015.8 |
| 20260903083557 | 81 | 0 | 0.0 | 0.0 | 0.00 | 0.00 | 0.00 | 63 | 1015.9 |
| 20260903083106 | 81 | 0 | 0.0 | 0.0 | 0.00 | 0.00 | 0.00 | 62 | 1015.9 |
| 20260903082553 | 81 | 0 | 0.0 | 0.0 | 0.00 | 0.00 | 0.00 | 62 | 1015.8 |
| 20260903082051 | 81 | 0 | 0.0 | 0.0 | 0.00 | 0.00 | 0.00 | 62 | 1015.9 |
| 20260903081601 | 81 | 0 | 0.0 | 0.0 | 0.00 | 0.00 | 0.00 | 62 | 1015.9 |
| 20260903081053 | 81 | 0 | 0.0 | 0.0 | 0.00 | 0.00 | 0.00 | 60 | 1016.0 |
| 20260903080552 | 81 | 0 | 0.0 | 0.0 | 0.00 | 0.00 | 0.00 | 60 | 1015.9 |
| 20260903075553 | 82 | 0 | 0.0 | 0.0 | 0.00 | 0.00 | 0.00 | 59 | 1015.9 |
| 20260903075052 | 82 | 0 | 0.0 | 0.0 | 0.00 | 0.00 | 0.00 | 58 | 1016.0 |
| 20260903074637 | 82 | 0 | 0.0 | 0.0 | 0.00 | 0.00 | 0.00 | 57 | 1016.0 |
| 20260903074052 | 82 | 0 | 0.0 | 2.0 | 0.00 | 0.00 | 0.00 | 57 | 1015.9 |
| 20260903073550 | 82 | 0 | 0.0 | 6.0 | 0.00 | 0.00 | 0.00 | 57 | 1015.9 |
| 20260903073115 | 82 | 0 | 1.0 | 6.0 | 0.00 | 0.00 | 0.00 | 57 | 1016.0 |
| 20260903072556 | 82 | 124 | 2.0 | 6.0 | 0.00 | 0.00 | 0.00 | 58 | 1015.9 |
| 20260903072053 | 82 | 0 | 1.0 | 3.0 | 0.00 | 0.00 | 0.00 | 57 | 1016.0 |
| 20260903071605 | 82 | 0 | 0.0 | 2.0 | 0.00 | 0.00 | 0.00 | 57 | 1015.9 |
| 20260903071053 | 82 | 0 | 0.0 | 3.0 | 0.00 | 0.00 | 0.00 | 57 | 1015.8 |
| 20260903070553 | 82 | 0 | 0.0 | 3.0 | 0.00 | 0.00 | 0.00 | 57 | 1015.7 |
| 20260903070114 | 82 | 0 | 0.0 | 3.0 | 0.00 | 0.00 | 0.00 | 59 | 1015.8 |
| 20260903065553 | 81 | 0 | 0.0 | 0.0 | 0.00 | 0.00 | 0.00 | 59 | 1015.7 |
| 20260903065052 | 82 | 0 | 0.0 | 0.0 | 0.00 | 0.00 | 0.00 | 60 | 1015.7 |
| 20260903064602 | 82 | 0 | 0.0 | 0.0 | 0.00 | 0.00 | 0.00 | 61 | 1015.8 |
| 20260903064052 | 82 | 0 | 0.0 | 0.0 | 0.00 | 0.00 | 0.00 | 61 | 1015.7 |
| 20260903063552 | 82 | 0 | 0.0 | 0.0 | 0.00 | 0.00 | 0.00 | 58 | 1015.7 |
| 20260903063109 | 82 | 0 | 0.0 | 0.0 | 0.00 | 0.00 | 0.00 | 58 | 1015.7 |
| 20260903062552 | 82 | 0 | 0.0 | 0.0 | 0.00 | 0.00 | 0.00 | 60 | 1015.7 |
| 20260903062053 | 82 | 0 | 0.0 | 0.0 | 0.00 | 0.00 | 0.00 | 60 | 1015.8 |
| 20260903061610 | 82 | 0 | 0.0 | 0.0 | 0.00 | 0.00 | 0.00 | 60 | 1015.9 |
| 20260903061056 | 82 | 0 | 0.0 | 0.0 | 0.00 | 0.00 | 0.00 | 59 | 1015.9 |
| 20260903060553 | 82 | 0 | 0.0 | 0.0 | 0.00 | 0.00 | 0.00 | 59 | 1015.9 |
| 20260903060058 | 82 | 0 | 0.0 | 3.0 | 0.00 | 0.00 | 0.00 | 59 | 1015.9 |
| 20260903055552 | 82 | 0 | 0.0 | 3.0 | 0.00 | 0.00 | 0.00 | 59 | 1015.8 |
| 20260903055051 | 83 | 0 | 0.0 | 3.0 | 0.00 | 0.00 | 0.00 | 59 | 1015.9 |
| 20260903054606 | 83 | 0 | 0.0 | 4.0 | 0.00 | 0.00 | 0.00 | 59 | 1015.9 |
| 20260903054053 | 83 | 0 | 1.0 | 4.0 | 0.00 | 0.00 | 0.00 | 59 | 1015.9 |
| 20260903053552 | 83 | 0 | 0.0 | 4.0 | 0.00 | 0.00 | 0.00 | 57 | 1015.9 |
| 20260903053101 | 83 | 279 | 1.0 | 4.0 | 0.00 | 0.00 | 0.00 | 54 | 1015.9 |
| 20260903052557 | 84 | 80 | 2.0 | 4.0 | 0.00 | 0.00 | 0.00 | 59 | 1016.0 |
| 20260903052051 | 83 | 80 | 1.0 | 4.0 | 0.00 | 0.00 | 0.00 | 53 | 1015.9 |
| 20260903051610 | 83 | 0 | 0.0 | 3.0 | 0.00 | 0.00 | 0.00 | 55 | 1015.9 |
| 20260903051052 | 83 | 80 | 1.0 | 3.0 | 0.00 | 0.00 | 0.00 | 55 | 1015.9 |
| 20260903050552 | 84 | 80 | 0.0 | 4.0 | 0.00 | 0.00 | 0.00 | 59 | 1015.9 |
| 20260903050111 | 84 | 80 | 2.0 | 4.0 | 0.00 | 0.00 | 0.00 | 55 | 1015.8 |
| 20260903045554 | 84 | 80 | 0.0 | 2.0 | 0.00 | 0.00 | 0.00 | 57 | 1015.8 |
| 20260903045051 | 84 | 80 | 0.0 | 4.0 | 0.00 | 0.00 | 0.00 | 58 | 1015.8 |
| 20260903044603 | 84 | 80 | 1.0 | 7.0 | 0.00 | 0.00 | 0.00 | 57 | 1015.8 |
| 20260903044052 | 85 | 80 | 1.0 | 7.0 | 0.00 | 0.00 | 0.00 | 55 | 1015.9 |
| 20260903043552 | 85 | 84 | 1.0 | 4.0 | 0.00 | 0.00 | 0.00 | 52 | 1015.8 |
| 20260903043059 | 85 | 284 | 1.0 | 4.0 | 0.00 | 0.00 | 0.00 | 49 | 1015.7 |
| 20260903042552 | 85 | 283 | 1.0 | 9.0 | 0.00 | 0.00 | 0.00 | 50 | 1015.7 |
| 20260903042055 | 85 | 278 | 3.0 | 9.0 | 0.00 | 0.00 | 0.00 | 51 | 1015.7 |
| 20260903041616 | 85 | 220 | 2.0 | 6.0 | 0.00 | 0.00 | 0.00 | 52 | 1015.7 |
| 20260903041052 | 85 | 0 | 1.0 | 7.0 | 0.00 | 0.00 | 0.00 | 55 | 1015.7 |
| 20260903040556 | 85 | 109 | 3.0 | 7.0 | 0.00 | 0.00 | 0.00 | 55 | 1015.5 |
| 20260903040106 | 85 | 125 | 2.0 | 8.0 | 0.00 | 0.00 | 0.00 | 53 | 1015.5 |
| 20260903035556 | 85 | 130 | 1.0 | 8.0 | 0.00 | 0.00 | 0.00 | 53 | 1015.4 |
| 20260903035054 | 85 | 85 | 2.0 | 6.0 | 0.00 | 0.00 | 0.00 | 52 | 1015.3 |
| 20260903034559 | 85 | 116 | 2.0 | 4.0 | 0.00 | 0.00 | 0.00 | 53 | 1015.1 |
| 20260903034055 | 86 | 117 | 2.0 | 4.0 | 0.00 | 0.00 | 0.00 | 51 | 1015.1 |
| 20260903033553 | 86 | 223 | 1.0 | 4.0 | 0.00 | 0.00 | 0.00 | 48 | 1015.1 |
| 20260903033057 | 86 | 222 | 0.0 | 4.0 | 0.00 | 0.00 | 0.00 | 48 | 1015.0 |
| 20260903032553 | 86 | 222 | 0.0 | 4.0 | 0.00 | 0.00 | 0.00 | 48 | 1014.9 |
| 20260903032052 | 87 | 0 | 2.0 | 5.0 | 0.00 | 0.00 | 0.00 | 48 | 1014.9 |
| 20260903031611 | 87 | 221 | 1.0 | 7.0 | 0.00 | 0.00 | 0.00 | 48 | 1014.8 |
| 20260903031055 | 87 | 216 | 2.0 | 7.0 | 0.00 | 0.00 | 0.00 | 47 | 1014.7 |
| 20260903030552 | 87 | 239 | 2.0 | 7.0 | 0.00 | 0.00 | 0.00 | 47 | 1014.7 |
| 20260903025551 | 87 | 200 | 2.0 | 7.0 | 0.00 | 0.00 | 0.00 | 47 | 1014.5 |
| 20260903025053 | 87 | 218 | 2.0 | 6.0 | 0.00 | 0.00 | 0.00 | 47 | 1014.4 |
| 20260903024600 | 87 | 213 | 2.0 | 5.0 | 0.00 | 0.00 | 0.00 | 45 | 1014.4 |
| 20260903024056 | 87 | 213 | 2.0 | 5.0 | 0.00 | 0.00 | 0.00 | 45 | 1014.4 |
| 20260903023552 | 87 | 200 | 2.0 | 7.0 | 0.00 | 0.00 | 0.00 | 46 | 1014.4 |
| 20260903023054 | 87 | 228 | 2.0 | 9.0 | 0.00 | 0.00 | 0.00 | 44 | 1014.4 |
| 20260903022552 | 87 | 213 | 4.0 | 9.0 | 0.00 | 0.00 | 0.00 | 44 | 1014.3 |
| 20260903022052 | 87 | 229 | 4.0 | 9.0 | 0.00 | 0.00 | 0.00 | 44 | 1014.2 |
| 20260903021604 | 87 | 223 | 2.0 | 9.0 | 0.00 | 0.00 | 0.00 | 43 | 1014.3 |
| 20260903021052 | 87 | 198 | 1.0 | 6.0 | 0.00 | 0.00 | 0.00 | 42 | 1014.3 |
| 20260903020551 | 87 | 171 | 1.0 | 5.0 | 0.00 | 0.00 | 0.00 | 41 | 1014.3 |
| 20260903020105 | 87 | 0 | 0.0 | 6.0 | 0.00 | 0.00 | 0.00 | 41 | 1014.3 |
| 20260903015552 | 87 | 168 | 2.0 | 6.0 | 0.00 | 0.00 | 0.00 | 41 | 1014.3 |
| 20260903015054 | 88 | 0 | 2.0 | 5.0 | 0.00 | 0.00 | 0.00 | 41 | 1014.4 |
| 20260903014625 | 88 | 190 | 1.0 | 5.0 | 0.00 | 0.00 | 0.00 | 41 | 1014.4 |
| 20260903014051 | 88 | 187 | 1.0 | 5.0 | 0.00 | 0.00 | 0.00 | 40 | 1014.5 |
| 20260903013554 | 88 | 164 | 1.0 | 5.0 | 0.00 | 0.00 | 0.00 | 39 | 1014.5 |
| 20260903013106 | 89 | 173 | 1.0 | 4.0 | 0.00 | 0.00 | 0.00 | 38 | 1014.3 |
| 20260903012553 | 89 | 0 | 0.0 | 7.0 | 0.00 | 0.00 | 0.00 | 38 | 1014.3 |
| 20260903012053 | 89 | 191 | 0.0 | 7.0 | 0.00 | 0.00 | 0.00 | 38 | 1014.3 |
| 20260903011620 | 89 | 190 | 1.0 | 5.0 | 0.00 | 0.00 | 0.00 | 38 | 1014.3 |
| 20260903011052 | 89 | 211 | 0.0 | 7.0 | 0.00 | 0.00 | 0.00 | 40 | 1014.2 |
| 20260903010551 | 89 | 0 | 1.0 | 7.0 | 0.00 | 0.00 | 0.00 | 41 | 1014.2 |
| 20260903010113 | 90 | 208 | 1.0 | 5.0 | 0.00 | 0.00 | 0.00 | 41 | 1014.1 |
| 20260903005551 | 90 | 178 | 0.0 | 4.0 | 0.00 | 0.00 | 0.00 | 41 | 1014.1 |
| 20260903005051 | 90 | 177 | 0.0 | 6.0 | 0.00 | 0.00 | 0.00 | 41 | 1014.1 |
| 20260903004607 | 91 | 230 | 1.0 | 6.0 | 0.00 | 0.00 | 0.00 | 41 | 1014.2 |
| 20260903004055 | 91 | 198 | 0.0 | 4.0 | 0.00 | 0.00 | 0.00 | 40 | 1014.3 |
| 20260903003552 | 92 | 199 | 0.0 | 3.0 | 0.00 | 0.00 | 0.00 | 40 | 1014.2 |
| 20260903003113 | 92 | 0 | 0.0 | 6.0 | 0.00 | 0.00 | 0.00 | 40 | 1014.2 |
| 20260903002552 | 92 | 194 | 1.0 | 6.0 | 0.00 | 0.00 | 0.00 | 40 | 1014.3 |
| 20260903002055 | 92 | 130 | 3.0 | 9.0 | 0.00 | 0.00 | 0.00 | 40 | 1014.2 |
| 20260903001606 | 91 | 0 | 1.0 | 9.0 | 0.00 | 0.00 | 0.00 | 41 | 1014.2 |
| 20260903001053 | 91 | 229 | 2.0 | 8.0 | 0.00 | 0.00 | 0.00 | 41 | 1014.2 |
| 20260903000553 | 90 | 221 | 1.0 | 9.0 | 0.00 | 0.00 | 0.00 | 42 | 1014.3 |
| 20260902235552 | 90 | 189 | 2.0 | 9.0 | 0.00 | 0.00 | 0.00 | 41 | 1014.4 |
| 20260902235051 | 91 | 207 | 2.0 | 9.0 | 0.00 | 0.00 | 0.00 | 41 | 1014.4 |
| 20260902234609 | 91 | 206 | 4.0 | 8.0 | 0.00 | 0.00 | 0.00 | 41 | 1014.3 |
| 20260902234056 | 92 | 115 | 0.0 | 8.0 | 0.00 | 0.00 | 0.00 | 39 | 1014.4 |
| 20260902233553 | 92 | 231 | 1.0 | 9.0 | 0.00 | 0.00 | 0.00 | 40 | 1014.3 |
| 20260902233054 | 92 | 236 | 2.0 | 9.0 | 0.00 | 0.00 | 0.00 | 39 | 1014.3 |
| 20260902232551 | 91 | 246 | 3.0 | 8.0 | 0.00 | 0.00 | 0.00 | 38 | 1014.3 |
| 20260902232054 | 91 | 263 | 2.0 | 9.0 | 0.00 | 0.00 | 0.00 | 37 | 1014.3 |
| 20260902231600 | 91 | 224 | 4.0 | 9.0 | 0.00 | 0.00 | 0.00 | 39 | 1014.4 |
| 20260902231052 | 91 | 237 | 4.0 | 8.0 | 0.00 | 0.00 | 0.00 | 39 | 1014.4 |
| 20260902230551 | 91 | 231 | 3.0 | 8.0 | 0.00 | 0.00 | 0.00 | 40 | 1014.4 |
| 20260902230104 | 90 | 223 | 3.0 | 5.0 | 0.00 | 0.00 | 0.00 | 40 | 1014.5 |
| 20260902225551 | 90 | 236 | 2.0 | 8.0 | 0.00 | 0.00 | 0.00 | 40 | 1014.6 |
| 20260902225054 | 90 | 235 | 2.0 | 10.0 | 0.00 | 0.00 | 0.00 | 40 | 1014.7 |
| 20260902224618 | 90 | 227 | 5.0 | 10.0 | 0.00 | 0.00 | 0.00 | 40 | 1014.9 |
| 20260902224051 | 91 | 257 | 4.0 | 10.0 | 0.00 | 0.00 | 0.00 | 40 | 1014.9 |
| 20260902223551 | 91 | 252 | 3.0 | 9.0 | 0.00 | 0.00 | 0.00 | 40 | 1014.9 |
| 20260902223056 | 91 | 251 | 3.0 | 9.0 | 0.00 | 0.00 | 0.00 | 40 | 1014.9 |
| 20260902222551 | 91 | 296 | 2.0 | 9.0 | 0.00 | 0.00 | 0.00 | 39 | 1014.9 |
| 20260902222051 | 91 | 252 | 2.0 | 10.0 | 0.00 | 0.00 | 0.00 | 40 | 1014.8 |
| 20260902221605 | 91 | 296 | 3.0 | 10.0 | 0.00 | 0.00 | 0.00 | 40 | 1015.0 |
| 20260902221051 | 91 | 298 | 4.0 | 11.0 | 0.00 | 0.00 | 0.00 | 40 | 1015.0 |
| 20260902220552 | 91 | 296 | 2.0 | 11.0 | 0.00 | 0.00 | 0.00 | 42 | 1014.9 |
| 20260902220116 | 91 | 249 | 0.0 | 7.0 | 0.00 | 0.00 | 0.00 | 41 | 1015.1 |
| 20260902215549 | 91 | 342 | 2.0 | 8.0 | 0.00 | 0.00 | 0.00 | 41 | 1015.2 |
| 20260902215050 | 91 | 275 | 3.0 | 9.0 | 0.00 | 0.00 | 0.00 | 40 | 1015.2 |
| 20260902214604 | 92 | 269 | 3.0 | 9.0 | 0.00 | 0.00 | 0.00 | 39 | 1015.4 |
| 20260902214051 | 92 | 270 | 4.0 | 9.0 | 0.00 | 0.00 | 0.00 | 38 | 1015.4 |
| 20260902213552 | 92 | 0 | 1.0 | 10.0 | 0.00 | 0.00 | 0.00 | 39 | 1015.4 |
| 20260902213104 | 92 | 248 | 5.0 | 10.0 | 0.00 | 0.00 | 0.00 | 38 | 1015.3 |
| 20260902212549 | 93 | 351 | 3.0 | 8.0 | 0.00 | 0.00 | 0.00 | 39 | 1015.2 |
| 20260902212050 | 93 | 30 | 1.0 | 9.0 | 0.00 | 0.00 | 0.00 | 39 | 1015.3 |
| 20260902211605 | 94 | 347 | 3.0 | 12.0 | 0.00 | 0.00 | 0.00 | 36 | 1015.4 |
| 20260902211055 | 93 | 285 | 2.0 | 12.0 | 0.00 | 0.00 | 0.00 | 37 | 1015.6 |
| 20260902210550 | 93 | 313 | 5.0 | 12.0 | 0.00 | 0.00 | 0.00 | 38 | 1015.7 |
| 20260902210108 | 93 | 317 | 2.0 | 11.0 | 0.00 | 0.00 | 0.00 | 39 | 1015.7 |
| 20260902205552 | 93 | 265 | 3.0 | 11.0 | 0.00 | 0.00 | 0.00 | 40 | 1015.8 |
| 20260902205049 | 92 | 305 | 4.0 | 11.0 | 0.00 | 0.00 | 0.00 | 40 | 1015.9 |
| 20260902204603 | 92 | 298 | 6.0 | 11.0 | 0.00 | 0.00 | 0.00 | 43 | 1015.9 |
| 20260902204050 | 91 | 276 | 2.0 | 12.0 | 0.00 | 0.00 | 0.00 | 43 | 1015.8 |
| 20260902203549 | 91 | 263 | 6.0 | 12.0 | 0.00 | 0.00 | 0.00 | 42 | 1016.0 |
| 20260902203110 | 91 | 0 | 4.0 | 12.0 | 0.00 | 0.00 | 0.00 | 43 | 1016.0 |
| 20260902202549 | 91 | 50 | 3.0 | 11.0 | 0.00 | 0.00 | 0.00 | 42 | 1016.0 |
| 20260902202049 | 91 | 296 | 5.0 | 12.0 | 0.00 | 0.00 | 0.00 | 42 | 1016.0 |
| 20260902201605 | 92 | 244 | 6.0 | 12.0 | 0.00 | 0.00 | 0.00 | 42 | 1016.0 |
| 20260902201049 | 91 | 303 | 3.0 | 12.0 | 0.00 | 0.00 | 0.00 | 44 | 1016.1 |
| 20260902200552 | 90 | 302 | 3.0 | 13.0 | 0.00 | 0.00 | 0.00 | 45 | 1016.2 |
| 20260902200105 | 90 | 263 | 5.0 | 13.0 | 0.00 | 0.00 | 0.00 | 47 | 1016.4 |